Regional Weather Roundup
Issued by NWS San Angelo, TX

Home | Current Version | Previous Version | Text Only | Print | Product List | Glossary On
Versions: 1 2 3 4 5 6 7 8 9 10 11 12 13 14 15 16 17 18 19 20 21 22 23 24 25 26 27 28 29 30 31 32 33 34 35 36 37 38 39 40 41 42 43 44 45 46 47 48 49 50
000
ASUS44 KSJT 281602
RWRSJT
WEST CENTRAL TEXAS REGIONAL WEATHER ROUNDUP
NATIONAL WEATHER SERVICE SAN ANGELO TX
1100 AM CDT FRI AUG 28 2015

NOTE: "FAIR" INDICATES FEW OR NO CLOUDS BELOW 12,000 FEET WITH NO
SIGNIFICANT WEATHER AND/OR OBSTRUCTIONS TO VISIBILITY.

TXZ049-054-064>066-071>073-076>078-098-099-113-114-127-128-139-140-
154-155-168>170-281700
...LOCATIONS ACROSS WEST CENTRAL TEXAS...

CITY           SKY/WX    TMP DP  RH WIND       PRES   REMARKS
SAN ANGELO     SUNNY     86  57  37 S14       30.04S
ABILENE        SUNNY     86  58  38 SW13      30.03S
DYESS AFB      SUNNY     88  60  39 S10       30.02R
JUNCTION       SUNNY     84  58  40 S9        30.06S
SWEETWATER     NOT AVBL
BROWNWOOD      NOT AVBL
COLEMAN        SUNNY     84  62  47 S8        30.05S
SONORA         NOT AVBL
OZONA          FAIR      82  52  34 S14       30.10S
BRADY          NOT AVBL
$$

TEXAS PANHANDLE/OKLAHOMA PANHANDLE

CITY           SKY/WX    TMP DP  RH WIND       PRES   REMARKS
AMARILLO       MOSUNNY   78  58  49 CALM      30.08R
BORGER         MOSUNNY   83  60  45 CALM      30.06R
CANADIAN       MOSUNNY   83  65  55 CALM      30.01S
DALHART        SUNNY     80  61  52 N16       30.13S
DUMAS          SUNNY     77  63  62 N12       30.10S
GUYMON         NOT AVBL
HEREFORD       NOT AVBL
PAMPA          MOSUNNY   84  60  44 NW8       30.08R
PERRYTON       NOT AVBL
$$

SOUTHERN PANHANDLE/SOUTH PLAINS/ROLLING PLAINS

CITY           SKY/WX    TMP DP  RH WIND       PRES   REMARKS
LUBBOCK        PTSUNNY   85  56  37 S18       30.06S
SNYDER         NOT AVBL
CHILDRESS      PTSUNNY   83  63  50 W7        30.01S
SEMINOLE       SUNNY     85  55  35 SW12      30.08S
$$

PERMIAN BASIN

CITY           SKY/WX    TMP DP  RH WIND       PRES   REMARKS
MIDLAND        SUNNY     86  54  33 S16G24    30.05S
ODESSA         SUNNY     85  54  34 S16       30.06F
WINK           MOSUNNY   89  56  32 S9        30.02S
$$

FAR WEST/SOUTHWEST MOUNTAINS/TRANS PECOS

CITY           SKY/WX    TMP DP  RH WIND       PRES   REMARKS
ALPINE         MOSUNNY   85  49  28 SW14      30.21S
DRYDEN           N/A     86  56  35 VRB7      30.04S
EL PASO        MOSUNNY   82  56  40 CALM      30.10S
FORT STOCKTON  SUNNY     90  54  29 S9        30.05S
GUADALUPE PASS PTSUNNY   81  50  33 W13       30.23R
MARFA          SUNNY     79  54  41 S6        30.21S
PECOS          NOT AVBL
$$

DALLAS/FORT WORTH METROPLEX

CITY           SKY/WX    TMP DP  RH WIND       PRES   REMARKS
DFW AIRPORT    MOSUNNY   86  62  44 SE12      30.01S
FTW MEACHAM    MOSUNNY   85  62  46 S10       30.00S
DAL-EXECUTIVE  SUNNY     83  63  50 SE9       30.02S
GRAND PRAIRIE  SUNNY     82  64  54 SE9       30.03S
ADDISON        SUNNY     82  61  47 SE10      30.04R
MESQUITE       SUNNY     82  63  51 SE5       30.03S
LANCASTER      SUNNY     82  62  49 SE6       30.03F
$$

NORTH CENTRAL TEXAS

CITY           SKY/WX    TMP DP  RH WIND       PRES   REMARKS
SHRMAN/DENISON SUNNY     84  66  53 SE12      30.05R
GAINESVILLE    NOT AVBL
BRIDGEPORT     SUNNY     85  63  48 S5        30.03S
DENTON         MOSUNNY   83  63  50 SE10      30.02R
WAXAHACHIE     SUNNY     84  65  53 SE6       30.04S
GRANBURY       NOT AVBL
$$

WESTERN NORTH TEXAS

CITY           SKY/WX    TMP DP  RH WIND       PRES   REMARKS
WICHITA FALLS  PTSUNNY   84  63  49 S13       29.98F
VERNON         CLOUDY    87  55  33 SW8       29.99S
BRECKENRIDGE   NOT AVBL
COMANCHE       SUNNY     85  61  44 SW12      30.04R
$$

CENTRAL AND SOUTH CENTRAL TEXAS

CITY           SKY/WX    TMP DP  RH WIND       PRES   REMARKS
AUSTIN/BERGSTM MOSUNNY   85  60  42 VRB5      30.02S
WACO           SUNNY     84  63  49 S5        30.02S
HILLSBORO      NOT AVBL
TEMPLE         SUNNY     84  63  48 SW6       30.03S
KILLEEN-GRAY   SUNNY     86  62  43 SW10      30.03R
FORT HOOD      SUNNY     86  62  44 SW8       30.01S
GEORGETOWN     NOT AVBL
LAGO VISTA     FAIR      85  59  42 SW7       30.06R
SAN MARCOS     SUNNY     86  57  37 SW10      30.04S
NEW BRAUNFELS  SUNNY     87  59  38 SW8       30.02S
RANDOLPH AFB   SUNNY     85  56  37 SW6       30.04R
SAN ANTONIO    MOSUNNY   85  57  38 SW7       30.04R
STINSON        SUNNY     86  57  37 SW8       30.02R
PLEASANTON     NOT AVBL
LA GRANGE      SUNNY     87  64  46 CALM      30.01S
GIDDINGS       NOT AVBL
$$

EAST TEXAS

CITY           SKY/WX    TMP DP  RH WIND       PRES   REMARKS
PARIS          SUNNY     81  57  44 SE7       30.06S
CLARKSVILLE    NOT AVBL
TYLER          SUNNY     82  60  47 S5        30.05R
LONGVIEW       SUNNY     81  64  56 SE6       30.05R
PALESTINE      SUNNY     82  66  58 S5        30.04S
NACOGDOCHES    SUNNY     81  63  54 SE7       30.04S
$$

TEXAS HILL COUNTRY AND EDWARDS PLATEAU

CITY           SKY/WX    TMP DP  RH WIND       PRES   REMARKS
LLANO          NOT AVBL
HORSESHOE BAY  FAIR      87  60  39 W6        30.05R
KERRVILLE      SUNNY     83  60  44 S5        30.08R
FREDERICKSBRG  NOT AVBL
ROCKSPRINGS    SUNNY     82  57  42 S9        30.11S
HONDO          SUNNY     85  58  39 S6        30.06S
UVALDE         NOT AVBL
DEL RIO        SUNNY     86  56  35 SE8       30.01S
$$

SOUTHEAST TEXAS

CITY           SKY/WX    TMP DP  RH WIND       PRES   REMARKS
COLLEGE STN    SUNNY     85  64  49 W7        30.03S
CALDWELL       NOT AVBL
CROCKETT       SUNNY     84  64  51 S3        30.06S
BRENHAM        NOT AVBL
HUNTSVILLE     SUNNY     85  64  49 VRB3      30.03S
CONROE         SUNNY     84  64  50 SW5       30.04S
HOUSTON BUSH   MOSUNNY   85  68  56 NW5       30.03S
HOUSTON HOBBY  MOSUNNY   85  69  58 N3        30.02S
PERLAND        SUNNY     84  68  58 CALM      30.04S
WHARTON        SUNNY     84  69  60 CALM      30.04R
$$

THE UPPER TEXAS COAST

CITY           SKY/WX    TMP DP  RH WIND       PRES   REMARKS
ORANGE         SUNNY     83  58  42 CALM      30.05S
PORT ARTHUR    SUNNY     85  67  54 CALM      30.02S
GALVESTON      SUNNY     87  72  60 N9        30.04R
ANGLETON       SUNNY     86  70  58 N5        30.03R
BAY CITY       SUNNY     84  72  67 NW3       30.03R
$$

TEXAS COASTAL BEND, RIO GRANDE PLAINS DEEP SOUTH TEXAS

CITY           SKY/WX    TMP DP  RH WIND       PRES   REMARKS
VICTORIA       SUNNY     84  68  58 MISG      30.03
BEEVILLE       FAIR      83  71  65 SW3       30.03R
ROCKPORT       SUNNY     85  69  58 NW6       30.01R
PORT ARANSAS   SUNNY     84  69  60 E5        30.01S
PORT LAVACA    SUNNY     83  70  64 NW3       30.03S
CORPUS CHRISTI MOSUNNY   86  67  52 E6        30.01R
KINGSVILLE NAS MOSUNNY   87  70  56 VRB5      30.01R
COTULLA        SUNNY     84  62  47 VRB5      30.03R
LAREDO         MOSUNNY   85  62  45 VRB7      30.03S
BROWNSVILLE    PTSUNNY   85  69  58 S6        30.00R
PORT ISABEL    CLOUDY    86  71  60 CALM      30.00R
HEBBRONVILLE   NOT AVBL
MCALLEN        MOSUNNY   88  70  55 E8        30.01S
WESLACO        NOT AVBL
FALFURRIAS     SUNNY     85  66  53 S5        30.01R
EDINBURG       MOSUNNY   85  66  52 SE6       30.01S
$$



USA.gov is the U.S. government's official web portal to all federal, state and local government web resources and services.